EW5407 Weather Reports


Display with metric or nautical units.
time (UTC)temp
F
wind
direction
speed
MPH
gust
MPH
rain 1hr
in
rain 24hr
in
rain mn
in
humidity
%
barometer
mb
20190221141409 69 190 4.0 8.0 0.00 0.00 0.00 82 1019.0
20190221140912 69 190 5.0 11.0 0.00 0.00 0.00 82 1018.8
20190221140416 69 190 5.0 11.0 0.00 0.00 0.00 83 1018.7
20190221135912 69 190 4.0 10.0 0.00 0.00 0.00 84 1018.6
20190221135422 69 190 3.0 10.0 0.00 0.00 0.00 84 1018.6
20190221134925 68 190 2.0 7.0 0.00 0.00 0.00 86 1018.5
20190221134907 68 190 3.0 10.0 0.00 0.00 0.00 85 1018.5
20190221134411 68 190 2.0 7.0 0.00 0.00 0.00 86 1018.5
20190221133906 68 190 2.0 7.0 0.00 0.00 0.00 86 1018.4
20190221133407 67 190 3.0 7.0 0.00 0.00 0.00 88 1018.4
20190221132907 67 190 3.0 8.0 0.00 0.00 0.00 89 1018.4
20190221132405 67 190 2.0 8.0 0.00 0.00 0.00 89 1018.3
20190221131908 66 190 4.0 12.0 0.00 0.00 0.00 90 1018.2
20190221131406 66 190 5.0 12.0 0.00 0.00 0.00 90 1018.2
20190221130914 65 190 4.0 9.0 0.00 0.00 0.00 91 1018.2
20190221130413 65 190 4.0 10.0 0.00 0.00 0.00 92 1018.2
20190221125908 65 190 3.0 10.0 0.00 0.00 0.00 92 1018.1
20190221125401 65 190 1.0 5.0 0.00 0.00 0.00 92 1018.0
20190221124904 65 190 1.0 5.0 0.00 0.00 0.00 92 1018.0
20190221124402 64 190 1.0 4.0 0.00 0.00 0.00 92 1017.8
20190221123905 64 190 1.0 4.0 0.00 0.00 0.00 91 1017.7
20190221123405 64 190 1.0 4.0 0.00 0.00 0.00 92 1017.6
20190221122903 64 190 1.0 4.0 0.00 0.00 0.00 91 1017.5
20190221122408 64 190 1.0 7.0 0.00 0.00 0.00 91 1017.5
20190221121900 64 190 2.0 7.0 0.00 0.00 0.00 91 1017.4
20190221121400 64 190 1.0 6.0 0.00 0.00 0.00 91 1017.4
20190221120922 64 190 1.0 5.0 0.00 0.00 0.00 90 1017.4
20190221120420 64 190 1.0 5.0 0.00 0.00 0.00 90 1017.3
20190221115901 64 190 1.0 4.0 0.00 0.00 0.00 90 1017.2
20190221115410 64 190 2.0 10.0 0.00 0.00 0.00 89 1017.2
20190221114902 64 190 3.0 10.0 0.00 0.00 0.00 89 1017.1
20190221114358 64 190 3.0 9.0 0.00 0.00 0.00 89 1017.1
20190221113903 64 190 2.0 9.0 0.00 0.00 0.00 90 1017.0
20190221113417 64 190 1.0 7.0 0.00 0.00 0.00 90 1016.8
20190221112916 64 190 1.0 5.0 0.00 0.00 0.00 90 1016.8
20190221112354 64 190 2.0 9.0 0.00 0.00 0.00 91 1016.8
20190221111853 64 190 2.0 9.0 0.00 0.00 0.00 92 1016.6
20190221111354 63 190 1.0 6.0 0.00 0.00 0.00 92 1016.8
20190221110859 63 190 0.0 4.0 0.00 0.00 0.00 92 1016.7
20190221110350 63 190 1.0 7.0 0.00 0.00 0.00 92 1016.7
20190221105859 63 190 2.0 7.0 0.00 0.00 0.00 92 1016.6
20190221105351 63 190 1.0 6.0 0.00 0.00 0.00 92 1016.6
20190221104852 64 190 1.0 5.0 0.00 0.00 0.00 92 1016.5
20190221104357 64 190 1.0 5.0 0.00 0.00 0.00 92 1016.5
20190221103353 64 190 1.0 5.0 0.00 0.00 0.00 92 1016.6
20190221102853 64 190 1.0 3.0 0.00 0.00 0.00 92 1016.5
20190221102351 64 190 1.0 3.0 0.00 0.00 0.00 92 1016.5
20190221101850 64 190 1.0 5.0 0.00 0.00 0.00 92 1016.6
20190221101358 64 190 2.0 5.0 0.00 0.00 0.00 92 1016.5
20190221100855 64 190 1.0 5.0 0.00 0.00 0.00 92 1016.5
20190221100349 63 190 0.0 3.0 0.00 0.00 0.00 92 1016.5
20190221095848 64 190 0.0 3.0 0.00 0.00 0.00 92 1016.5
20190221095350 64 190 0.0 3.0 0.00 0.00 0.00 92 1016.4
20190221094849 64 190 0.0 1.0 0.00 0.00 0.00 92 1016.4
20190221094350 64 190 0.0 3.0 0.00 0.00 0.00 92 1016.4
20190221093953 64 190 1.0 5.0 0.00 0.00 0.00 92 1016.4
20190221093858 64 190 1.0 3.0 0.00 0.00 0.00 92 1016.3
20190221092849 64 190 1.0 5.0 0.00 0.00 0.00 92 1016.4
20190221092348 64 190 1.0 6.0 0.00 0.00 0.00 92 1016.4
20190221091849 64 190 1.0 6.0 0.00 0.00 0.00 93 1016.4
20190221091348 64 190 1.0 3.0 0.00 0.00 0.00 93 1016.5
20190221090848 63 190 0.0 2.0 0.00 0.00 0.00 93 1016.5
20190221090350 63 190 0.0 2.0 0.00 0.00 0.00 93 1016.4
20190221085847 63 190 0.0 3.0 0.00 0.00 0.00 92 1016.4
20190221085348 64 190 1.0 5.0 0.00 0.00 0.00 92 1016.4
20190221084847 64 190 2.0 5.0 0.00 0.00 0.00 92 1016.4
20190221084346 64 190 3.0 6.0 0.00 0.00 0.00 93 1016.6
20190221083853 64 190 2.0 6.0 0.00 0.00 0.00 92 1016.6
20190221083345 64 190 1.0 6.0 0.00 0.00 0.00 92 1016.6
20190221082847 64 190 0.0 3.0 0.00 0.00 0.00 91 1016.6
20190221082346 64 190 0.0 2.0 0.00 0.00 0.00 91 1016.5
20190221081846 64 190 1.0 5.0 0.00 0.00 0.00 91 1016.5
20190221081345 64 190 2.0 5.0 0.00 0.00 0.00 91 1016.5
20190221080846 64 190 2.0 7.0 0.00 0.00 0.00 91 1016.5
20190221080347 64 190 2.0 7.0 0.00 0.00 0.00 92 1016.5
20190221075846 64 190 2.0 7.0 0.00 0.00 0.00 92 1016.6
20190221075346 64 190 2.0 7.0 0.00 0.00 0.00 92 1016.6
20190221074845 64 190 3.0 8.0 0.00 0.00 0.00 92 1016.7
20190221074344 64 190 3.0 8.0 0.00 0.00 0.00 92 1016.8
20190221073844 64 190 2.0 6.0 0.00 0.00 0.00 92 1017.0
20190221073345 64 190 2.0 5.0 0.00 0.00 0.00 92 1017.0
20190221072846 64 190 2.0 5.0 0.00 0.00 0.00 91 1017.0
20190221072345 64 190 2.0 5.0 0.00 0.00 0.00 91 1017.0
20190221071844 64 190 2.0 6.0 0.00 0.00 0.00 91 1017.0
20190221071343 64 190 2.0 7.0 0.00 0.00 0.00 91 1017.1
20190221070844 64 190 2.0 7.0 0.00 0.00 0.00 91 1017.2
20190221070346 64 190 2.0 5.0 0.00 0.00 0.00 92 1017.2
20190221065844 64 190 1.0 5.0 0.00 0.00 0.00 92 1017.3
20190221065341 64 190 2.0 6.0 0.00 0.00 0.00 92 1017.3
20190221064847 64 190 2.0 6.0 0.00 0.00 0.00 92 1017.4
20190221064346 64 190 1.0 4.0 0.00 0.00 0.00 92 1017.4
20190221063842 64 190 1.0 3.0 0.00 0.00 0.00 91 1017.5
20190221063342 64 190 1.0 3.0 0.00 0.00 0.00 91 1017.5
20190221062844 64 190 1.0 3.0 0.00 0.00 0.00 91 1017.5
20190221062341 64 190 1.0 6.0 0.00 0.00 0.00 91 1017.5
20190221061840 64 190 1.0 6.0 0.00 0.00 0.00 91 1017.7
20190221061341 64 190 2.0 4.0 0.00 0.00 0.00 91 1017.6
20190221060841 64 190 2.0 4.0 0.00 0.00 0.00 91 1017.7
20190221060337 65 190 1.0 4.0 0.00 0.00 0.00 91 1017.8
20190221055832 65 190 1.0 3.0 0.00 0.00 0.00 91 1018.0
20190221055332 65 190 2.0 6.0 0.00 0.00 0.00 91 1018.0
20190221054831 65 190 2.0 7.0 0.00 0.00 0.00 91 1018.1
20190221054330 65 190 2.0 7.0 0.00 0.00 0.00 91 1018.1
20190221053830 65 190 2.0 5.0 0.00 0.00 0.00 90 1018.2
20190221053330 65 190 2.0 5.0 0.00 0.00 0.00 90 1018.2
20190221052832 65 190 3.0 8.0 0.00 0.00 0.00 90 1018.2
20190221052327 65 190 3.0 8.0 0.00 0.00 0.00 90 1018.2
20190221051826 65 190 2.0 6.0 0.00 0.00 0.00 90 1018.3
20190221051327 65 190 2.0 5.0 0.00 0.00 0.00 90 1018.3
20190221050830 65 190 1.0 4.0 0.00 0.00 0.00 90 1018.4
20190221050329 65 190 2.0 7.0 0.00 0.00 0.00 90 1018.4
20190221045829 65 190 2.0 7.0 0.00 0.00 0.00 90 1018.4
20190221045334 65 190 1.0 4.0 0.00 0.00 0.00 89 1018.4
20190221044826 65 190 2.0 5.0 0.00 0.00 0.00 89 1018.3
20190221044348 65 190 2.0 5.0 0.00 0.00 0.00 89 1018.4
20190221043836 65 190 2.0 5.0 0.00 0.00 0.00 89 1018.4
20190221043329 65 190 1.0 5.0 0.00 0.00 0.00 89 1018.5
20190221042826 65 190 1.0 3.0 0.00 0.00 0.00 89 1018.5
20190221042324 65 190 1.0 5.0 0.00 0.00 0.00 89 1018.5
20190221041824 65 190 1.0 5.0 0.00 0.00 0.00 89 1018.5
20190221041321 65 190 1.0 4.0 0.00 0.00 0.00 88 1018.5
20190221040820 66 190 2.0 5.0 0.00 0.00 0.00 88 1018.5
20190221040329 66 190 2.0 5.0 0.00 0.00 0.00 88 1018.4
20190221035818 65 190 1.0 5.0 0.00 0.00 0.00 88 1018.3
20190221035328 65 190 1.0 5.0 0.00 0.00 0.00 88 1018.3
20190221034828 66 190 2.0 5.0 0.00 0.00 0.00 87 1018.2
20190221034319 66 190 2.0 5.0 0.00 0.00 0.00 87 1018.2
20190221033821 66 190 2.0 5.0 0.00 0.00 0.00 87 1018.2
20190221033320 66 190 2.0 5.0 0.00 0.00 0.00 86 1018.1
20190221032814 66 190 2.0 5.0 0.00 0.00 0.00 86 1018.1
20190221032312 66 190 2.0 6.0 0.00 0.00 0.00 86 1018.1
20190221031829 66 190 2.0 6.0 0.00 0.00 0.00 86 1018.0
20190221031317 66 190 2.0 5.0 0.00 0.00 0.00 86 1018.0
20190221030810 66 190 1.0 3.0 0.00 0.00 0.00 85 1017.8
20190221030308 66 190 1.0 4.0 0.00 0.00 0.00 85 1017.8
20190221025814 66 190 1.0 4.0 0.00 0.00 0.00 85 1017.7
20190221025309 67 190 1.0 5.0 0.00 0.00 0.00 85 1017.7
20190221024813 67 190 1.0 5.0 0.00 0.00 0.00 85 1017.6
20190221024312 67 190 1.0 3.0 0.00 0.00 0.00 85 1017.6
20190221023810 67 190 1.0 4.0 0.00 0.00 0.00 85 1017.5
20190221023309 66 190 1.0 5.0 0.00 0.00 0.00 85 1017.5
20190221022810 67 190 1.0 5.0 0.00 0.00 0.00 85 1017.5
20190221022319 67 190 0.0 2.0 0.00 0.00 0.00 85 1017.5
20190221021818 67 190 1.0 3.0 0.00 0.00 0.00 84 1017.5
20190221021316 67 190 1.0 3.0 0.00 0.00 0.00 84 1017.4
20190221020812 67 190 1.0 3.0 0.00 0.00 0.00 84 1017.2
20190221020307 67 190 1.0 5.0 0.00 0.00 0.00 83 1017.2
20190221015807 67 190 1.0 5.0 0.00 0.00 0.00 83 1017.1
20190221015305 67 190 1.0 3.0 0.00 0.00 0.00 82 1017.2
20190221014816 68 190 1.0 4.0 0.00 0.00 0.00 82 1017.2
20190221014309 68 190 1.0 4.0 0.00 0.00 0.00 82 1017.1
20190221013810 68 190 1.0 3.0 0.00 0.00 0.00 81 1017.0
20190221013311 68 190 1.0 4.0 0.00 0.00 0.00 81 1016.8
20190221012808 68 190 2.0 6.0 0.00 0.00 0.00 80 1016.7
20190221012317 68 190 2.0 6.0 0.00 0.00 0.00 79 1016.6
20190221011811 68 190 1.0 5.0 0.00 0.00 0.00 78 1016.6
20190221011313 68 190 2.0 4.0 0.00 0.00 0.00 78 1016.5
20190221010806 68 190 2.0 5.0 0.00 0.00 0.00 77 1016.4
20190221010309 68 190 2.0 5.0 0.00 0.00 0.00 77 1016.4
20190221005807 68 190 1.0 4.0 0.00 0.00 0.00 77 1016.4
20190221005308 69 190 2.0 4.0 0.00 0.00 0.00 76 1016.3
20190221004810 69 190 1.0 4.0 0.00 0.00 0.00 76 1016.3
20190221004311 69 190 1.0 4.0 0.00 0.00 0.00 75 1016.2
20190221003810 69 190 1.0 4.0 0.00 0.00 0.00 75 1016.2
20190221003306 69 190 1.0 3.0 0.00 0.00 0.00 73 1016.2
20190221002806 69 190 1.0 3.0 0.00 0.00 0.00 73 1016.2
20190221002310 70 190 2.0 3.0 0.00 0.00 0.00 72 1016.1
20190221001806 70 190 1.0 3.0 0.00 0.00 0.00 71 1016.1
20190221001309 70 190 1.0 4.0 0.00 0.00 0.00 70 1016.0
20190221000810 71 190 1.0 4.0 0.00 0.00 0.00 68 1015.8
20190221000311 71 190 1.0 4.0 0.00 0.00 0.00 67 1015.7
20190220235812 71 190 1.0 4.0 0.00 0.00 0.00 66 1015.7
20190220235309 71 190 1.0 4.0 0.00 0.00 0.00 66 1015.7
20190220234819 72 190 2.0 4.0 0.00 0.00 0.00 66 1015.6
20190220234307 72 190 2.0 5.0 0.00 0.00 0.00 65 1015.6
20190220233806 72 190 3.0 6.0 0.00 0.00 0.00 64 1015.6
20190220233308 73 190 2.0 8.0 0.00 0.00 0.00 63 1015.5
20190220232806 73 190 3.0 8.0 0.00 0.00 0.00 62 1015.6
20190220232308 73 190 4.0 8.0 0.00 0.00 0.00 61 1015.5
20190220231803 74 190 3.0 7.0 0.00 0.00 0.00 60 1015.5
20190220231311 74 190 3.0 6.0 0.00 0.00 0.00 59 1015.4
20190220230754 75 190 3.0 7.0 0.00 0.00 0.00 59 1015.3
20190220230303 75 190 4.0 7.0 0.00 0.00 0.00 58 1015.3
20190220225812 75 190 4.0 7.0 0.00 0.00 0.00 58 1015.3
20190220225308 76 190 3.0 8.0 0.00 0.00 0.00 57 1015.3
20190220224801 76 190 4.0 8.0 0.00 0.00 0.00 57 1015.2
20190220224310 76 190 4.0 9.0 0.00 0.00 0.00 57 1015.3
20190220223757 76 190 4.0 9.0 0.00 0.00 0.00 56 1015.3
20190220223258 76 190 5.0 10.0 0.00 0.00 0.00 57 1015.3
20190220222801 76 190 4.0 10.0 0.00 0.00 0.00 56 1015.3
20190220222256 77 190 3.0 8.0 0.00 0.00 0.00 56 1015.3
20190220221757 77 190 4.0 8.0 0.00 0.00 0.00 54 1015.3
20190220221254 76 190 5.0 10.0 0.00 0.00 0.00 54 1015.2
20190220220803 77 190 5.0 10.0 0.00 0.00 0.00 53 1015.2
20190220220255 77 190 4.0 12.0 0.00 0.00 0.00 54 1015.2
20190220215756 77 190 5.0 12.0 0.00 0.00 0.00 53 1015.2
20190220215256 77 190 5.0 10.0 0.00 0.00 0.00 53 1015.2
20190220214810 78 190 5.0 10.0 0.00 0.00 0.00 53 1015.2
20190220214259 77 190 4.0 10.0 0.00 0.00 0.00 53 1015.2
20190220213755 78 190 4.0 10.0 0.00 0.00 0.00 52 1015.3
20190220213255 78 190 4.0 10.0 0.00 0.00 0.00 51 1015.3
20190220212755 78 190 4.0 9.0 0.00 0.00 0.00 51 1015.2
20190220212254 78 190 4.0 7.0 0.00 0.00 0.00 51 1015.2
20190220211753 78 190 4.0 8.0 0.00 0.00 0.00 51 1015.3
20190220211302 78 190 4.0 8.0 0.00 0.00 0.00 52 1015.4
20190220210813 78 190 4.0 10.0 0.00 0.00 0.00 51 1015.4
20190220210251 78 190 4.0 10.0 0.00 0.00 0.00 51 1015.4
20190220205802 78 190 4.0 8.0 0.00 0.00 0.00 52 1015.5
20190220205303 77 190 3.0 8.0 0.00 0.00 0.00 53 1015.6
20190220204802 78 190 4.0 8.0 0.00 0.00 0.00 53 1015.6
20190220204411 78 190 4.0 8.0 0.00 0.00 0.00 52 1015.7
20190220203828 78 190 4.0 9.0 0.00 0.00 0.00 52 1015.7
20190220203255 78 190 5.0 9.0 0.00 0.00 0.00 52 1015.7
20190220202813 79 190 4.0 9.0 0.00 0.00 0.00 50 1015.7
20190220202251 78 190 4.0 9.0 0.00 0.00 0.00 53 1015.7
20190220201800 78 190 5.0 9.0 0.00 0.00 0.00 53 1015.7
20190220201305 77 190 5.0 11.0 0.00 0.00 0.00 52 1015.7
20190220200802 78 190 4.0 11.0 0.00 0.00 0.00 53 1015.8
20190220200251 77 190 3.0 9.0 0.00 0.00 0.00 54 1015.8
20190220195753 76 190 4.0 10.0 0.00 0.00 0.00 56 1016.1
20190220195251 76 190 5.0 10.0 0.00 0.00 0.00 55 1016.3
20190220194749 76 190 5.0 9.0 0.00 0.00 0.00 56 1016.3
20190220194256 76 190 4.0 9.0 0.00 0.00 0.00 55 1016.3
20190220193753 77 190 3.0 6.0 0.00 0.00 0.00 55 1016.3
20190220193256 77 190 4.0 10.0 0.00 0.00 0.00 54 1016.4
20190220192747 77 190 5.0 10.0 0.00 0.00 0.00 54 1016.5
20190220192254 77 190 5.0 11.0 0.00 0.00 0.00 56 1016.5
20190220191754 77 190 3.0 11.0 0.00 0.00 0.00 56 1016.5
20190220191246 77 190 4.0 11.0 0.00 0.00 0.00 58 1016.5
20190220190753 76 190 6.0 12.0 0.00 0.00 0.00 58 1016.7
20190220190246 76 190 5.0 12.0 0.00 0.00 0.00 58 1016.8
20190220185747 76 190 5.0 14.0 0.00 0.00 0.00 58 1017.1
20190220185250 76 190 5.0 14.0 0.00 0.00 0.00 58 1017.0
20190220184748 76 190 3.0 8.0 0.00 0.00 0.00 54 1017.0
20190220184248 76 190 4.0 9.0 0.00 0.00 0.00 57 1017.0
20190220183747 76 190 5.0 11.0 0.00 0.00 0.00 57 1017.1
20190220183253 76 190 5.0 11.0 0.00 0.00 0.00 56 1017.2
20190220182748 77 190 5.0 12.0 0.00 0.00 0.00 55 1017.2
20190220182250 76 190 5.0 12.0 0.00 0.00 0.00 55 1017.2
20190220181748 76 190 5.0 10.0 0.00 0.00 0.00 56 1017.5
20190220181253 76 190 4.0 9.0 0.00 0.00 0.00 58 1017.5
20190220180750 75 190 4.0 10.0 0.00 0.00 0.00 60 1017.5
20190220180247 75 190 5.0 12.0 0.00 0.00 0.00 59 1017.5
20190220175750 75 190 4.0 12.0 0.00 0.00 0.00 59 1017.6
20190220175247 76 190 4.0 11.0 0.00 0.00 0.00 60 1017.6
20190220174742 75 190 4.0 11.0 0.00 0.00 0.00 60 1017.8
20190220174244 75 190 4.0 8.0 0.00 0.00 0.00 61 1017.8
20190220173743 74 190 5.0 11.0 0.00 0.00 0.00 62 1018.0
20190220173246 75 190 5.0 11.0 0.00 0.00 0.00 61 1018.0
20190220172751 74 190 5.0 11.0 0.00 0.00 0.00 60 1018.2
20190220172246 74 190 5.0 10.0 0.00 0.00 0.00 62 1018.3
20190220171742 74 190 6.0 12.0 0.00 0.00 0.00 61 1018.3
20190220171249 74 190 6.0 12.0 0.00 0.00 0.00 64 1018.3
20190220170744 74 190 5.0 10.0 0.00 0.00 0.00 64 1018.4
20190220170249 74 190 5.0 11.0 0.00 0.00 0.00 63 1018.5
20190220165743 74 190 5.0 11.0 0.00 0.00 0.00 64 1018.6
20190220165256 74 190 5.0 10.0 0.00 0.00 0.00 66 1018.5
20190220164739 73 190 5.0 10.0 0.00 0.00 0.00 67 1018.7
20190220164231 73 190 6.0 12.0 0.00 0.00 0.00 64 1018.7
20190220163742 73 190 6.0 15.0 0.00 0.00 0.00 66 1018.6
20190220163243 72 190 6.0 15.0 0.00 0.00 0.00 67 1018.7
20190220162732 72 190 5.0 12.0 0.00 0.00 0.00 70 1018.7
20190220162232 72 190 6.0 12.0 0.00 0.00 0.00 69 1018.7
20190220161740 72 190 6.0 12.0 0.00 0.00 0.00 70 1018.8
20190220161243 72 190 6.0 11.0 0.00 0.00 0.00 70 1018.8
20190220160731 72 190 5.0 10.0 0.00 0.00 0.00 70 1018.8
20190220160233 71 190 5.0 9.0 0.00 0.00 0.00 71 1018.8
20190220155731 71 190 6.0 12.0 0.00 0.00 0.00 71 1019.0
20190220155244 71 190 7.0 12.0 0.00 0.00 0.00 73 1019.0
20190220154738 70 190 7.0 14.0 0.00 0.00 0.00 72 1019.0
20190220154232 70 190 6.0 14.0 0.00 0.00 0.00 72 1019.1
20190220153729 70 190 5.0 11.0 0.00 0.00 0.00 75 1019.0
20190220153257 70 190 6.0 11.0 0.00 0.00 0.00 75 1019.1
20190220153242 70 190 6.0 11.0 0.00 0.00 0.00 75 1019.2
20190220152245 69 190 5.0 11.0 0.00 0.00 0.00 76 1019.1
20190220151740 69 190 5.0 11.0 0.00 0.00 0.00 77 1019.1
20190220151248 69 190 6.0 11.0 0.00 0.00 0.00 77 1019.1
20190220150742 68 190 6.0 12.0 0.00 0.00 0.00 78 1019.1
20190220150233 68 190 6.0 12.0 0.00 0.00 0.00 78 1019.1
20190220145734 68 190 5.0 10.0 0.00 0.00 0.00 78 1019.1
20190220145241 67 190 5.0 11.0 0.00 0.00 0.00 80 1019.1
20190220144738 67 190 5.0 11.0 0.00 0.00 0.00 80 1019.0
20190220144227 67 190 5.0 11.0 0.00 0.00 0.00 81 1019.0
20190220143727 66 190 5.0 11.0 0.00 0.00 0.00 81 1019.0
20190220143229 66 190 5.0 9.0 0.00 0.00 0.00 83 1019.0
20190220142744 66 190 5.0 11.0 0.00 0.00 0.00 83 1019.0
20190220142223 65 190 6.0 11.0 0.00 0.00 0.00 84 1018.8